星链-36604(STARLINK-36604)

导读 | 豆包AI

STARLINK-36604(NORAD编号68142)是美国SpaceX公司星链(Starlink)卫星互联网星座中的一颗第二代通信卫星,属于星链大规模组网的组成部分。该卫星运行于近地轨道,原轨道高度约550公里,根据SpaceX 2026年降轨计划,已调整至480公里,以提升太空运行安全性。卫星质量约227-260kg,配备氪离子推进系统与自主碰撞规避系统,支持Ku/Ka频段通信,为全球提供低时延宽带互联网接入服务,是SpaceX上万颗星链星座部署计划中的典型单元。

基本信息
目录编号:
68142
目录名称:
STARLINK-36604
国际标识:
2026-049A
轨道中心:
EARTH
卫星名称:
星链-36604
卫星全名:
星链-36604(STARLINK-36604)
卫星状态:
在轨 (已飞行73 天)
发射日期:
2026-03-13 UTC
国别 :
美国 (US)
星等 :
--
轨道信息
数据来源 国际轨道数据
星历时间: 2026-05-25T08:46:44+0800
7小时前
查看轨道信息
半长轴: 6843.672km
偏心率: 0.000087
轨道倾角: 97.286°
近地点辐角 119.990°
升交点赤经 166.641°
平近点角 240.143°
近地点: 464.939km
远地点: 466.131km
周期: 93.906分钟
每日圈数: 15.334478
详细信息
固有亮度:
5
最大亮度:
2.5
卫星平台:
Starlink V1.0
覆盖范围:
全球
运营商:
太空探索技术公司
运营商所在国:
美国
制造商(研发单位):
太空探索技术公司
制造商所在国:
美国
使用方式:
暂无
卫星简介
Starlink 计划是 SpaceX 推出的全球卫星互联网项目,通过发射低轨道卫星,为全球尤其是偏远地区提供高速、低延迟的互联网服务。自 2019 年起,Starlink 已部署数千颗卫星,旨在缩小全球数字鸿沟,推动互联网普及。该项目还为军事、航空等行业提供通信支持,带来广泛经济效益。
2D轨道图
3D轨道图
轨道高度分析图
轨道倾角分析图
轨道综合分析图
查看轨道综合分析图